Find Starlink 32323

NORAD ID: 61677 Int'l Des: 2024-193 Owner: SPXS Country: US Constellation: starlink operational
LEOCIRCULAR

Live Position

Loading 3D Globe...

About Starlink 32323

Description loading...

Upcoming Passes

Passes for default location (London). Set your location on the main map for personalized predictions.

Altitude History

Loading altitude history...

Two-Line Element Set

1 61677U 24193S 26123.48977375 .00022414 00000-0 67263-3 0 9990
2 61677 53.1590 195.9787 0001627 92.9096 267.2092 15.34395125 84928
Epoch: May 3, 2026 • Age: 15 hours

Current Status

Altitude 464.1 km
Velocity 7.64 km/s
Sub-Earth Point 33.38°N, 85.47°E
Launch Date Oct 26, 2024
Age 1.5 years
Type internet

Technical Details

Classification Payload
Mass 730.00 kg
Dry Mass 700.00 kg
Total Mass 730.00 kg
Length 0.30 m
Diameter 4.10 m
Span 29.00 m
Shape Box + pan
Manufacturer SPXS
Bus Type Starlink V2M
Phase Status In Orbit
Owner/State SPXS/US

Most Searched